Hourly Data Report for September 28, 2017

All times are specified in Local Standard Time (LST). Add 1 hour to adjust for Daylight Saving Time where and when it is observed.

KUGAARUK CLIMATE
NUNAVUT

68°32'15.060" N
89°47'47.020" W
15.80 m
2303094
71407
NBB

Download Data

Hourly Data (September 2017)
Hourly Data Report for September 28, 2017
Temp Definition
°C
Dew Point Temp Definition
°C
Rel Hum Definition
%
Wind Dir Definition
10's deg

Wind Spd Definition
km/h
Visibility Definition
km
Stn Press Definition
kPa
Hmdx Definition


Wind Chill Definition


Weather Definition


TIME
00:00 -1.0 -3.8 81 27 24   101.18   -7 LegendNANA
01:00 -1.3 -4.6 78 28 39   101.18   -9 LegendNANA
02:00 -1.6 -4.3 82 31 28   101.26   -8 LegendNANA
03:00 -1.9 -5.4 77 32 30   101.36   -9 LegendNANA
04:00 -2.1 -5.6 77 31 31   101.44   -9 LegendNANA
05:00 -2.5 -5.9 77 32 31   101.50   -10 LegendNANA
06:00 -2.4 -6.5 73 31 33   101.54   -10 LegendNANA
07:00 -3.1 -7.4 72 31 34   101.59   -11 LegendNANA
08:00 -3.3 -7.4 73 31 22   101.67   -10 LegendNANA
09:00 -3.1 -7.3 73 30 33   101.68   -11 LegendNANA
10:00 -3.0 -7.7 70 30 34   101.75   -11 LegendNANA
11:00 -3.2 -7.5 72 30 35   101.77   -11 LegendNANA
12:00 -2.5 -7.6 68 30 32   101.82   -10 LegendNANA
13:00 -2.2 -9.5 58 31 31   101.84   -9 LegendNANA
14:00 -2.5 -10.0 56 30 34   101.86   -10 LegendNANA
15:00 -2.6 -9.7 58 31 29   101.89   -10 LegendNANA
16:00 -2.9 -10.1 57 32 26   101.90   -10 LegendNANA
17:00 -2.9 -9.7 59 30 21   101.91   -9 LegendNANA
18:00 -3.1 -8.9 64 30 23   101.89   -10 LegendNANA
19:00 -3.3 -8.6 67 30 21   101.86   -10 LegendNANA
20:00 -3.5 -7.3 75 28 18   101.82   -9 LegendNANA
21:00 -3.7 -7.8 73 28 20   101.78   -10 LegendNANA
22:00 -3.8 -7.6 74 28 18   101.74   -10 LegendNANA
23:00 -4.1 -7.9 75 26 22   101.68   -11 LegendNANA

Notes on Data Quality.

Legend

  • E = Estimated
  • M = Missing
  • NA = Not Available
  • ‡ = Partner data that is not subject to review by the National Climate Archives
Date modified: